This demonstration page uses our WeatherBlox Daily Observations layout. Learn more.

Left ArrowRight Arrow

Hourly Observations for June 7, 2016

Temp ( °F °C ) Dew Point ( °F °C ) Humidity (%) Winds ( mph kmh ) Pressure ( in mb ) Visibility ( mi km ) Precip ( " mm )
12:54 am 00:54 Clear 58 14.4 49 9.4 72 72 N 6 9 29.98 1015 10 16.0934 0 0
1:54 am 01:54 Clear 57 13.9 49 9.4 74 74 N 8 13 29.99 1016 10 16.0934 0 0
2:54 am 02:54 Clear 57 13.9 49 9.4 74 74 Calm 30 1016 10 16.0934 0 0
3:54 am 03:54 Clear 56 13.3 48 8.9 75 75 N 7 11 29.98 1015 10 16.0934 0 0
4:54 am 04:54 Clear 55 12.8 48 8.9 77 77 N 7 11 29.98 1015 10 16.0934 0 0
5:54 am 05:54 Clear 57 13.9 47 8.3 69 69 NW 5 7 30.01 1016 10 16.0934 0 0
6:54 am 06:54 Sunny 55 12.8 49 9.4 80 80 Calm 30.01 1016 10 16.0934 0 0
7:54 am 07:54 Sunny 61 16.1 49 9.4 65 65 N 5 7 30.03 1017 10 16.0934 0 0
8:54 am 08:54 Sunny 66 18.9 51 10.6 59 59 NE 6 9 30.04 1017 10 16.0934 0 0
9:54 am 09:54 Sunny 69 20.6 50 10 51 51 VRB 3 6 30.04 1017 10 16.0934 0 0
10:54 am 10:54 Sunny 71 21.7 50 10 47 47 NNE 8 13 30.03 1017 10 16.0934 0 0
11:54 am 11:54 Sunny 73 22.8 49 9.4 43 43 VRB 5 7 30.01 1016 10 16.0934 0 0
12:54 pm 12:54 Sunny 73 22.8 47 8.3 40 40 SW 3 6 30 1016 10 16.0934 0 0
1:54 pm 13:54 Sunny 76 24.4 49 9.4 39 39 Calm 29.98 1015 10 16.0934 0 0
2:54 pm 14:54 Sunny 78 25.6 50 10 37 37 VRB 5 7 29.96 1015 10 16.0934 0 0
3:54 pm 15:54 Sunny 78 25.6 50 10 37 37 S 9 15 29.94 1014 10 16.0934 0 0
4:54 pm 16:54 Sunny 79 26.1 50 10 36 36 Calm 29.93 1013 10 16.0934 0 0
5:54 pm 17:54 Sunny 79 26.1 49 9.4 35 35 Calm 29.91 1013 10 16.0934 0 0
6:54 pm 18:54 Sunny 79 26.1 50 10 36 36 VRB 3 6 29.89 1012 10 16.0934 0 0
7:54 pm 19:54 Sunny 77 25 52 11.1 42 42 SSE 5 7 29.89 1012 10 16.0934 0 0
8:54 pm 20:54 Sunny 75 23.9 49 9.4 40 40 ESE 5 7 29.89 1012 10 16.0934 0 0
9:54 pm 21:54 Clear 73 22.8 51 10.6 46 46 SE 3 6 29.91 1013 10 16.0934 0 0
10:54 pm 22:54 Clear 69 20.6 52 11.1 55 55 S 3 6 29.93 1014 10 16.0934 0 0
11:54 pm 23:54 Clear 67 19.4 53 11.7 61 61 SSE 6 9 29.92 1013 10 16.0934 0 0

Powered by AerisWeather